{"data":{"norad_id":65181,"intl_designator":"2025-175H","name":"STARLINK-34942","alt_names":[],"object_type":"PAYLOAD","status":"ACTIVE","operator":null,"country":"US","launch_date":"2025-08-14","launch_site_code":"AFWTR","launch_vehicle":null,"mission":null,"orbit_class":"UNKNOWN","rcs_meters":null,"size_class":null,"mass_kg":null,"dimensions":null,"purposes":["comms"],"wikipedia_slug":null,"has_3d_model":false,"image_url":null,"decayed_at":null,"tle_current":{"epoch":"2026-05-25T02:10:12.474624Z","epoch_age_seconds":61131,"freshness":"FRESH","line1":"1 65181U 25175H   26145.09042216  .00005861  00000+0  40983-3 0  9999","line2":"2 65181  97.4512  17.5428 0002293  90.1574 269.9916 15.05660656 44101","mean_motion":15.05660656,"eccentricity":0.0002293,"inclination_deg":97.4512,"raan_deg":17.5428,"arg_perigee_deg":90.1574,"mean_anomaly_deg":269.9916,"bstar":0.00040983,"rev_number":4410,"period_min":95.639080045139,"perigee_km":547.88996578152,"apogee_km":551.06697023515,"semimajor_km":6927.6154680083,"source":"CELESTRAK","updated_at":"2026-05-25T13:38:20.690269Z"}}}